GW4477 Weather Reports


time (UTC)temp
F
wind
direction
speed
knots
gust
knots
rain 1hr
in
rain 24hr
in
rain mn
in
humidity
%
barometer
mb
20260902003022 88 215 0.9 3.5 0.00 0.00 0.00 40 1015.1
20260902001523 88 209 1.7 3.5 0.00 0.00 0.00 39 1015.2
20260902000006 89 170 0.9 2.6 0.00 0.00 0.00 38 1015.2
20260901234509 91 177 1.7 7.0 0.00 0.00 0.00 36 1015.1
20260901233014 92 180 2.6 6.1 0.00 0.00 0.00 34 1014.9
20260901231524 94 177 4.3 7.8 0.00 0.00 0.00 33 1015.0
20260901230027 95 230 4.3 11.3 0.00 0.00 0.00 31 1014.8
20260901224508 95 239 2.6 10.4 0.00 0.00 0.00 31 1014.7
20260901223012 95 250 4.3 12.2 0.00 0.00 0.00 31 1014.8
20260901221516 96 360 5.2 11.3 0.00 0.00 0.00 31 1015.0
20260901220038 96 260 4.3 11.3 0.00 0.00 0.00 32 1015.1
20260901214529 94 168 3.5 10.4 0.00 0.00 0.00 31 1015.3
20260901213013 96 199 2.6 7.0 0.00 0.00 0.00 30 1015.4
20260901211518 95 360 4.3 10.4 0.00 0.00 0.00 30 1015.5
20260901210026 96 360 2.6 11.3 0.00 0.00 0.00 30 1015.7
20260901204535 96 360 3.5 7.8 0.00 0.00 0.00 30 1016.0
20260901203037 96 360 4.3 9.6 0.00 0.00 0.00 31 1016.3
20260901201512 96 227 4.3 11.3 0.00 0.00 0.00 29 1016.4
20260901200024 95 360 6.1 12.2 0.00 0.00 0.00 31 1016.5
20260901194525 95 188 6.1 11.3 0.00 0.00 0.00 30 1016.7
20260901193034 95 360 6.1 12.2 0.00 0.00 0.00 30 1016.8
20260901191511 95 183 4.3 13.0 0.00 0.00 0.00 32 1017.2
20260901190020 94 190 5.2 12.2 0.00 0.00 0.00 33 1017.4
20260901184503 94 203 7.8 15.6 0.00 0.00 0.00 29 1017.6
20260901183007 93 172 6.1 12.2 0.00 0.00 0.00 32 1017.8
20260901181521 94 198 2.6 8.7 0.00 0.00 0.00 35 1018.0
20260901180019 93 182 5.2 10.4 0.00 0.00 0.00 36 1018.2
20260901174545 92 211 3.5 8.7 0.00 0.00 0.00 39 1018.4
20260901173004 91 200 2.6 8.7 0.00 0.00 0.00 41 1018.5
20260901171510 91 229 1.7 7.0 0.00 0.00 0.00 41 1018.7
20260901170012 90 233 3.5 8.7 0.00 0.00 0.00 43 1018.8
20260901164525 89 244 3.5 7.0 0.00 0.00 0.00 43 1018.9
20260901163027 88 262 2.6 8.7 0.00 0.00 0.00 43 1019.0
20260901161510 87 252 4.3 7.8 0.00 0.00 0.00 44 1018.9
20260901160021 86 286 2.6 9.6 0.00 0.00 0.00 46 1018.9
20260901154518 85 256 2.6 9.6 0.00 0.00 0.00 49 1018.7
20260901153026 83 173 4.3 8.7 0.00 0.00 0.00 50 1018.7
20260901151507 81 360 4.3 8.7 0.00 0.00 0.00 54 1018.7
20260901150015 79 173 2.6 7.0 0.00 0.00 0.00 60 1018.7
20260901144517 78 219 4.3 9.6 0.00 0.00 0.00 62 1018.5
20260901143027 76 225 4.3 8.7 0.00 0.00 0.00 65 1018.7
20260901141528 75 223 4.3 9.6 0.00 0.00 0.00 67 1018.8
20260901140027 73 220 3.5 7.8 0.00 0.00 0.00 71 1018.6
20260901134522 71 214 2.6 7.0 0.00 0.00 0.00 74 1018.7
20260901133024 70 218 0.9 6.1 0.00 0.00 0.00 79 1018.7
20260901131528 67 171 0.9 2.6 0.00 0.00 0.00 84 1018.5
20260901130031 66 207 1.7 2.6 0.00 0.00 0.00 85 1018.5
20260901124522 65 160 0.0 1.7 0.00 0.00 0.00 85 1018.5
20260901123036 65 139 0.9 2.6 0.00 0.00 0.00 85 1018.4
20260901121528 64 148 0.0 1.7 0.00 0.00 0.00 85 1018.1
20260901120042 65 176 0.9 1.7 0.00 0.00 0.00 86 1018.0
20260901114538 65 209 0.0 1.7 0.00 0.00 0.00 86 1018.1
20260901113018 65 205 0.0 1.7 0.00 0.00 0.00 85 1018.1
20260901111529 65 181 0.0 1.7 0.00 0.00 0.00 86 1018.1
20260901110030 65 163 0.0 0.0 0.00 0.00 0.00 85 1018.1
20260901104530 65 158 0.0 0.0 0.00 0.00 0.00 85 1018.1
20260901103032 65 342 0.0 0.0 0.00 0.00 0.00 85 1018.3
20260901101504 66 342 0.0 0.0 0.00 0.00 0.00 84 1018.4
20260901100003 66 342 0.0 1.7 0.00 0.00 0.00 84 1018.5
20260901094510 66 342 0.0 0.0 0.00 0.00 0.00 83 1018.5
20260901093003 67 342 0.0 1.7 0.00 0.00 0.00 81 1018.6
20260901091503 68 182 0.9 2.6 0.00 0.00 0.00 79 1018.4
20260901090008 70 321 0.0 1.7 0.00 0.00 0.00 75 1018.5
20260901084508 71 251 0.0 3.5 0.00 0.00 0.00 74 1018.5
20260901083003 70 214 0.0 0.9 0.00 0.00 0.00 78 1018.2
20260901081503 70 271 0.0 0.9 0.00 0.00 0.00 78 1018.2
20260901080005 69 214 0.9 3.5 0.00 0.00 0.00 81 1018.2
20260901074504 69 259 0.0 1.7 0.00 0.00 0.00 81 1018.2
20260901073024 69 250 0.0 1.7 0.00 0.00 0.00 82 1018.2
20260901071504 69 257 0.0 1.7 0.00 0.00 0.00 83 1018.1
20260901070006 69 246 0.0 1.7 0.00 0.00 0.00 82 1018.0
20260901064510 70 213 0.0 1.7 0.00 0.00 0.00 82 1017.8
20260901063007 70 195 0.0 1.7 0.00 0.00 0.00 80 1017.6
20260901061505 71 257 0.0 1.7 0.00 0.00 0.00 78 1017.5
20260901060006 71 238 0.0 1.7 0.00 0.00 0.00 75 1017.4
20260901054504 73 250 0.0 1.7 0.00 0.00 0.00 72 1017.4
20260901053006 74 205 0.0 1.7 0.00 0.00 0.00 69 1017.4
20260901051507 76 194 0.9 1.7 0.00 0.00 0.00 65 1017.4
20260901050007 77 194 0.0 1.7 0.00 0.00 0.00 62 1017.4
20260901044509 79 170 0.0 1.7 0.00 0.00 0.00 57 1017.4
20260901043009 80 221 0.0 1.7 0.00 0.00 0.00 53 1017.4
20260901041510 81 211 0.9 4.3 0.00 0.00 0.00 52 1017.4
20260901040009 82 195 0.0 3.5 0.00 0.00 0.00 51 1017.4
20260901034511 82 259 0.0 2.6 0.00 0.00 0.00 51 1017.7
20260901033016 80 256 0.0 1.7 0.00 0.00 0.00 54 1017.2
20260901031509 78 239 0.0 0.0 0.00 0.00 0.00 64 1017.1
20260901030012 78 239 0.0 1.7 0.00 0.00 0.00 67 1016.9
20260901024511 80 211 0.0 0.9 0.00 0.00 0.00 66 1016.7
20260901023013 80 211 0.0 0.0 0.00 0.00 0.00 62 1016.0
20260901021506 81 211 0.0 0.0 0.00 0.00 0.00 59 1015.6
20260901020011 81 211 0.0 0.0 0.00 0.00 0.00 58 1015.1
20260901014515 82 211 0.0 0.0 0.00 0.00 0.00 59 1014.7
20260901013004 84 211 0.0 0.0 0.00 0.00 0.00 56 1015.0
20260901011506 87 211 0.0 0.0 0.00 0.00 0.00 54 1015.0
20260901010009 88 211 0.0 0.0 0.00 0.00 0.00 50 1014.9
20260901004517 90 211 0.0 0.0 0.00 0.00 0.00 47 1014.8